Showing default

PROPCUBE 3, 40973

Orbit data source: Space-Track

PROPCUBE 3, 40973 is a payload satellite owned by USN PGS (US) in LEO that was launched on Thu, 08 Oct 2015 UTC via an ATLAS V 401 launch vehicle from the Air Force Western Test Range (AFWTR). Payload-class satellites include a variety of spacecraft equipped with specific instruments for various scientific and technological missions. These include communications satellites like Starlink; space stations such as the ISS; scientific satellites like the Hubble; Earth observation satellites from companies like Planet Labs, Umbra, and HawkEye 360; GPS; miniature CubeSats for education and research; and military/defense satellites.

Loading next visibility...
Identifier
40973, 2015-058K
Orbit
LEO
Country
Flag of USUS
Related business
Manufacturer
Tyvak NSS
Mission
Operational Defense Technology
Bus & Motor
CUBESAT 1U, Unknown motor
Mass
1 kg wet, 1 kg dry
Launch date (UTC)
2015-10-08 (10 years ago)
Launch vehicle
ATLAS V 401
Launch site
Air Force Western Test Range (AFWTR)
Object type
Payload
Rocket body
Debris
Shape & HBR
Box, 0.1 m
Radar Cross Section
0.015 m², Small (<0.1 m²)

Expand to show TLE details & history
Last TLE update: 10 hours ago

TLE from 10 hours ago
0 PROPCUBE 3
1 40973U 15058K   25296.13084257  .00004080  00000-0  34848-3 0  9998
2 40973  64.7683 272.0535 0137297 152.7426 208.0981 14.92064867 79404
Epoch: 2025-10-23T03:08Z
TLE epoch observation values (Epoch: 2025-10-23T03:08:24.798Z)
Latitude
-0.00002°
Longitude
-166.84434°
Altitude
678.215 km
Speed
7.472 km/s
True Right ascension
18h 08m 12s
True Declination
0° 00' 00"
Sunlit
Object was in daylight at epoch
Visualization orbit readout
Latitude
Unknown
Longitude
Unknown
Altitude
Unknown
Speed
Unknown
Apparent Right ascension
Unknown
Apparent Declination
Unknown
Sunlit
N/A
Visualization observer readout
Local Sidereal Time
08:09:58
Azimuth
Unknown
Elevation
Unknown
Doppler factor
Unknown
Orbital elements
Apogee altitude
685.736 km
Perigee altitude
494.394 km
Semi-major axis
6,968.202 km
Eccentricity
0.01373
Inclination
64.7683°
RAAN
272.0535°
Arg. of periapsis
152.7426°
True anomaly
207.36818°
Mean anomaly
208.0981°
Eccentric anomaly
207.73204°
Mean motion
3.73132 °/min
Orbital period
96.48 mins
BSTAR
0.00034848
Loading maneuver chart data...
Computing Atmospheric mass density...
Loading historical data...
Loading historical data...
Loading historical data...
Loading historical data...
Loading historical data...
Loading historical data...
Loading historical data...

Documentation

Showing up to 5 results
|